Flag for Australia Weather past 2 weeks in Melbourne, Victoria, Australia

Now
52 °F

Passing clouds.


Feels Like: 51 °F
Forecast: 47 / 67 °F
Wind: 5 mph from Northwest

Location: Melbourne Airport


UV Index: 3 (Moderate)

Visibility: N/A


Pressure: 30.04 "Hg

Humidity: 88%

Dew point: 48 °F

Location of MelbourneLocation

Historic Weather in Melbourne

°F

Melbourne temperature yesterday

Maximum temperature yesterday: 61 °F (at 1:00 PM)
Minimum temperature yesterday: 48 °F (at 6:30 AM)
Average temperature yesterday: 54 °F

Past Weeks' High & Low Weather Summary

 TemperatureHumidityPressure
High75 °F (Apr 7, 2:00 PM)100% (Apr 6, 2:30 AM)30.24 "Hg (Apr 6, 2:30 AM)
Low46 °F (Apr 14, 4:00 AM)36% (Apr 7, 3:00 PM)29.77 "Hg (Apr 11, 12:30 AM)
Average60 °F78%30.09 "Hg
* Reported Apr 5 1:00 AM — Apr 20 12:30 AM, Melbourne, Weather by CustomWeather, © 2014

Note: Actual official high and low records may vary slightly from our data, if they occured in-between our weather recording intervals... More about our weather records

Advertising

Historic Weather Conditions — Data for Previous 24 hours

 ConditionsComfort  
Time TempWeatherWind HumidityBarometerVisibility
12:30 AM
Apr 20
52 °FPassing clouds.7 mph88%30.04 "HgN/A
12:00 AM54 °FPassing clouds.6 mph82%30.04 "HgN/A
11:30 PM
Apr 19
52 °FPassing clouds.6 mph88%30.04 "HgN/A
11:00 PM54 °FPassing clouds.6 mph82%30.07 "HgN/A
10:30 PM52 °FPassing clouds.6 mph88%30.07 "HgN/A
10:00 PM52 °FPassing clouds.6 mph82%30.07 "HgN/A
9:30 PM50 °FPassing clouds.No wind88%30.07 "HgN/A
9:00 PM54 °FPassing clouds.No wind77%30.07 "HgN/A
8:30 PM55 °FPassing clouds.No wind72%30.07 "HgN/A
8:00 PM55 °FPassing clouds.2 mph72%30.07 "HgN/A
7:30 PM55 °FPassing clouds.6 mph72%30.07 "HgN/A
7:00 PM55 °FPassing clouds.6 mph72%30.07 "HgN/A
6:30 PM57 °FPassing clouds.6 mph67%30.07 "HgN/A
6:00 PM55 °FPassing clouds.7 mph72%30.07 "HgN/A
5:30 PM57 °FPassing clouds.9 mph67%30.07 "HgN/A
5:00 PM57 °FPassing clouds.10 mph67%30.07 "HgN/A
4:30 PM59 °FPartly sunny.8 mph48%30.07 "HgN/A
4:00 PM59 °FPartly sunny.8 mph48%30.07 "HgN/A
3:30 PM59 °FPartly sunny.10 mph51%30.07 "HgN/A
3:00 PM59 °FPartly sunny.12 mph55%30.07 "HgN/A
2:30 PM61 °FPartly sunny.10 mph48%30.07 "HgN/A
2:00 PM59 °FPartly sunny.10 mph55%30.09 "HgN/A
1:30 PM61 °FPartly sunny.8 mph45%30.09 "HgN/A
1:00 PM61 °FBroken clouds.9 mph45%30.09 "HgN/A
12:30 PM59 °FBroken clouds.13 mph48%30.12 "HgN/A
12:00 PM59 °FBroken clouds.14 mph48%30.12 "HgN/A
11:30 AM59 °FBroken clouds.15 mph51%30.12 "HgN/A
11:00 AM59 °FBroken clouds.14 mph51%30.12 "HgN/A
10:30 AM57 °FBroken clouds.15 mph51%30.12 "HgN/A
10:00 AM57 °FPartly sunny.13 mph55%30.12 "HgN/A
9:30 AM55 °FPartly sunny.13 mph63%30.12 "HgN/A
9:00 AM55 °FPartly sunny.10 mph67%30.12 "HgN/A
8:30 AM52 °FBroken clouds.9 mph72%30.12 "HgN/A
8:00 AM50 °FScattered clouds.10 mph76%30.12 "HgN/A
7:30 AM50 °FPartly sunny.8 mph76%30.12 "HgN/A
7:00 AM48 °FPartly sunny.3 mph82%30.12 "HgN/A
6:30 AM48 °FPartly sunny.9 mph76%30.09 "HgN/A
6:00 AM50 °FPartly sunny.9 mph76%30.09 "HgN/A
5:30 AM50 °FPassing clouds.10 mph76%30.09 "HgN/A
5:00 AM50 °FPassing clouds.10 mph82%30.09 "HgN/A
4:30 AM52 °FPassing clouds.13 mph72%30.09 "HgN/A
4:00 AM50 °FPassing clouds.10 mph76%30.09 "HgN/A
3:30 AM50 °FPassing clouds.12 mph82%30.09 "HgN/A
3:00 AM50 °FPartly cloudy.12 mph82%30.09 "HgN/A
2:30 AM50 °FPassing clouds.10 mph82%30.09 "HgN/A
2:00 AM50 °FClear.13 mph82%30.09 "Hg10 mi
1:00 AM50 °FPartly cloudy.13 mph82%30.12 "HgN/A
Weather by CustomWeather, © 2014

See weather overview